星链-5693 (STARLINK-5693 )

导读

STARLINK-5693是美国太空探索技术公司Starlink星座的卫星,于2023年2月2日发射,属于SpaceX批量组网的星链卫星之一,承担低轨卫星互联网服务,可为全球偏远地区等提供高速宽带接入,延续星链星座低轨互联布局,目前在轨运行,持续拓展星链星座的全球通信覆盖能力与服务范围。

基本信息
目录编号:
55482
目录名称:
STARLINK-5693
国际标识:
2023-015AK
轨道中心:
EARTH
卫星名称:
星链-5693
卫星全名:
星链-5693 (STARLINK-5693 )
卫星状态:
已陨落 最后检测时间 2025-01-29
发射日期:
2023-02-02 UTC
国别 :
美国 (US)
星等 :
--
轨道信息
数据来源 国际轨道数据
星历时间: 2025-01-29T17:24:24+0800
轨道信息已过期501天
半长轴: 6513.73km
偏心率: 0.0008572
轨道倾角: 42.985°
近地点辐角 274.444°
升交点赤经 348.111°
平近点角 140.406°
近地点: 130.011km
远地点: 141.179km
周期: 87.198分钟
每日圈数: 16.514226
详细信息
固有亮度:
5
最大亮度:
2.5
卫星平台:
Starlink v1.5
覆盖范围:
全球
运营商:
太空探索技术公司
运营商所在国:
美国
制造商(研发单位):
太空探索技术公司
制造商所在国:
美国
使用方式:
暂无
卫星简介
星链(Starlink)计划是由太空探索技术公司(SpaceX)提出的一个巨型低轨卫星互联网星座项目,计划在2019年至2024年间在太空搭建由约1.2万颗卫星组成的“星链”网络,其中1584颗将部署在地球上空550千米处的近地轨道,并从2020年开始工作。该卫星仍在工作。